カタログに戻る

THOR ABLESTAR DEB

運用中LEO
NORAD 410·DEBRIS·🇺🇸 United States

打ち上げ Jun 29, 1961 から Cape Canaveral Space Force Station

Loading…

次のパス (今後24時間)

TLE

最新Source: Space-Track

元期: Sep 9, 2026, 21:49 UTC

1 00410U 61015EK  26252.90971638 -.00000019  00000-0  56261-4 0  9993
2 00410  66.6926 195.9877 0020317 297.4608 122.2299 13.76625499271736

AllMySatでTHOR ABLESTAR DEBをリアルタイム追跡

Download on the App Store